| time (UTC) | temp F | wind direction | speed MPH | gust MPH | rain 1hr in | rain 24hr in | rain mn in | humidity % | barometer mb |
| 20260510191330 | 59 | 180 | 3.0 | 6.0 | 0.00 | 0.00 | 0.00 | 81 | 1000.2 |
| 20260510190332 | 58 | 360 | 6.0 | 8.0 | 0.00 | 0.00 | 0.00 | 82 | 1000.2 |
| 20260510185332 | 58 | 360 | 5.0 | 8.0 | 0.00 | 0.00 | 0.00 | 82 | 1000.2 |
| 20260510184336 | 58 | 360 | 4.0 | 6.0 | 0.00 | 0.00 | 0.00 | 82 | 1000.2 |
| 20260510183830 | 58 | 360 | 4.0 | 6.0 | 0.00 | 0.00 | 0.00 | 81 | 1000.2 |
| 20260510183328 | 58 | 170 | 4.0 | 7.0 | 0.00 | 0.00 | 0.00 | 83 | 1000.2 |
| 20260510182344 | 58 | 174 | 3.0 | 8.0 | 0.00 | 0.00 | 0.00 | 80 | 1000.2 |
| 20260510181832 | 58 | 150 | 0.0 | 2.0 | 0.00 | 0.00 | 0.00 | 76 | 1000.2 |
| 20260510181328 | 58 | 150 | 1.0 | 2.0 | 0.00 | 0.00 | 0.00 | 79 | 1000.2 |
| 20260510180826 | 57 | 150 | 0.0 | 3.0 | 0.00 | 0.00 | 0.00 | 79 | 1000.2 |
| 20260510175839 | 57 | 150 | 0.0 | 3.0 | 0.00 | 0.00 | 0.00 | 79 | 1000.2 |
| 20260510174847 | 57 | 150 | 1.0 | 3.0 | 0.00 | 0.00 | 0.00 | 82 | 1000.2 |
| 20260510173829 | 57 | 360 | 2.0 | 4.0 | 0.00 | 0.00 | 0.00 | 83 | 1000.2 |
| 20260510172844 | 56 | 166 | 0.0 | 0.0 | 0.00 | 0.00 | 0.00 | 83 | 1000.2 |
| 20260510172321 | 56 | 166 | 0.0 | 1.0 | 0.00 | 0.00 | 0.00 | 82 | 1000.2 |
| 20260510171328 | 56 | 360 | 0.0 | 3.0 | 0.00 | 0.00 | 0.00 | 81 | 1000.2 |
| 20260510170331 | 56 | 360 | 2.0 | 4.0 | 0.00 | 0.00 | 0.00 | 83 | 1000.2 |
| 20260510165332 | 56 | 360 | 3.0 | 6.0 | 0.00 | 0.00 | 0.00 | 84 | 1000.2 |
| 20260510164338 | 55 | 360 | 4.0 | 5.0 | 0.00 | 0.00 | 0.00 | 85 | 1000.2 |
| 20260510163834 | 55 | 360 | 3.0 | 5.0 | 0.00 | 0.00 | 0.00 | 85 | 1000.2 |
| 20260510162843 | 55 | 360 | 3.0 | 4.0 | 0.00 | 0.00 | 0.00 | 85 | 1000.2 |
| 20260510161830 | 55 | 360 | 0.0 | 2.0 | 0.00 | 0.00 | 0.00 | 85 | 1000.2 |
| 20260510160836 | 55 | 360 | 2.0 | 3.0 | 0.00 | 0.00 | 0.00 | 86 | 1000.2 |
| 20260510155836 | 54 | 360 | 0.0 | 3.0 | 0.00 | 0.00 | 0.00 | 86 | 1000.2 |
| 20260510154834 | 54 | 360 | 2.0 | 4.0 | 0.00 | 0.00 | 0.00 | 87 | 1000.2 |
| 20260510154322 | 54 | 360 | 1.0 | 3.0 | 0.00 | 0.00 | 0.00 | 86 | 1000.2 |
| 20260510153820 | 54 | 360 | 0.0 | 3.0 | 0.00 | 0.00 | 0.00 | 87 | 1000.2 |
| 20260510152839 | 53 | 360 | 0.0 | 3.0 | 0.00 | 0.00 | 0.00 | 88 | 1000.2 |
| 20260510151838 | 53 | 360 | 0.0 | 1.0 | 0.00 | 0.00 | 0.00 | 88 | 1000.2 |
| 20260510151331 | 53 | 360 | 0.0 | 2.0 | 0.00 | 0.00 | 0.00 | 89 | 1000.2 |
| 20260510150825 | 53 | 360 | 0.0 | 3.0 | 0.00 | 0.00 | 0.00 | 90 | 1000.2 |
| 20260510145841 | 52 | 360 | 1.0 | 2.0 | 0.00 | 0.00 | 0.00 | 91 | 1000.2 |
| 20260510145329 | 52 | 360 | 0.0 | 4.0 | 0.00 | 0.00 | 0.00 | 91 | 1000.2 |
| 20260510144338 | 53 | 360 | 0.0 | 4.0 | 0.00 | 0.00 | 0.00 | 91 | 1000.2 |
| 20260510143834 | 53 | 360 | 2.0 | 4.0 | 0.00 | 0.00 | 0.00 | 91 | 1000.2 |
| 20260510142841 | 53 | 360 | 1.0 | 4.0 | 0.00 | 0.00 | 0.00 | 90 | 1000.2 |
| 20260510142329 | 53 | 360 | 2.0 | 4.0 | 0.00 | 0.00 | 0.00 | 91 | 1000.2 |
| 20260510141818 | 52 | 360 | 1.0 | 3.0 | 0.00 | 0.00 | 0.00 | 91 | 1000.2 |
| 20260510140825 | 52 | 360 | 3.0 | 4.0 | 0.00 | 0.00 | 0.00 | 93 | 1000.2 |
| 20260510140323 | 51 | 360 | 1.0 | 3.0 | 0.00 | 0.00 | 0.00 | 93 | 1000.2 |
| 20260510135323 | 51 | 360 | 0.0 | 2.0 | 0.00 | 0.00 | 0.00 | 93 | 1000.2 |
| 20260510134339 | 50 | 360 | 2.0 | 5.0 | 0.00 | 0.00 | 0.00 | 93 | 1000.2 |
| 20260510133834 | 50 | 360 | 3.0 | 5.0 | 0.00 | 0.00 | 0.00 | 93 | 1000.2 |
| 20260510132822 | 50 | 360 | 1.0 | 3.0 | 0.00 | 0.00 | 0.00 | 94 | 1000.2 |
| 20260510131836 | 49 | 360 | 1.0 | 2.0 | 0.00 | 0.00 | 0.00 | 94 | 1000.2 |
| 20260510131326 | 49 | 360 | 1.0 | 2.0 | 0.00 | 0.00 | 0.00 | 94 | 1000.2 |
| 20260510130342 | 49 | 360 | 1.0 | 2.0 | 0.00 | 0.00 | 0.00 | 94 | 1000.2 |
| 20260510125839 | 49 | 360 | 0.0 | 2.0 | 0.00 | 0.00 | 0.00 | 94 | 1000.2 |
| 20260510125320 | 50 | 360 | 0.0 | 2.0 | 0.00 | 0.00 | 0.00 | 94 | 1000.2 |
| 20260510124330 | 49 | 360 | 1.0 | 3.0 | 0.00 | 0.00 | 0.00 | 93 | 1000.2 |
| 20260510123340 | 49 | 360 | 2.0 | 4.0 | 0.00 | 0.00 | 0.00 | 94 | 1000.2 |
| 20260510122328 | 49 | 360 | 0.0 | 3.0 | 0.00 | 0.00 | 0.00 | 94 | 1000.2 |
| 20260510121329 | 49 | 360 | 1.0 | 3.0 | 0.00 | 0.00 | 0.00 | 94 | 1000.2 |
| 20260510120825 | 49 | 360 | 1.0 | 3.0 | 0.00 | 0.00 | 0.00 | 94 | 1000.2 |
| 20260510115837 | 49 | 360 | 1.0 | 3.0 | 0.00 | 0.00 | 0.00 | 94 | 1000.2 |
| 20260510115325 | 49 | 360 | 1.0 | 2.0 | 0.00 | 0.00 | 0.00 | 94 | 1000.2 |
| 20260510114335 | 49 | 360 | 2.0 | 3.0 | 0.00 | 0.00 | 0.00 | 94 | 1000.2 |
| 20260510113830 | 50 | 360 | 0.0 | 2.0 | 0.00 | 0.00 | 0.00 | 93 | 1000.2 |
| 20260510112841 | 50 | 360 | 0.0 | 2.0 | 0.00 | 0.00 | 0.00 | 93 | 1000.2 |
| 20260510111830 | 50 | 360 | 1.0 | 2.0 | 0.00 | 0.00 | 0.00 | 93 | 1000.2 |
| 20260510110841 | 50 | 360 | 1.0 | 3.0 | 0.00 | 0.00 | 0.00 | 93 | 1000.2 |
| 20260510105838 | 50 | 360 | 1.0 | 3.0 | 0.00 | 0.00 | 0.00 | 93 | 1000.2 |
| 20260510104822 | 50 | 360 | 1.0 | 2.0 | 0.00 | 0.00 | 0.00 | 92 | 1000.2 |
| 20260510103834 | 51 | 360 | 1.0 | 3.0 | 0.00 | 0.00 | 0.00 | 92 | 1000.2 |
| 20260510102848 | 51 | 360 | 0.0 | 2.0 | 0.00 | 0.00 | 0.00 | 92 | 1000.2 |
| 20260510102326 | 51 | 360 | 0.0 | 3.0 | 0.00 | 0.00 | 0.00 | 92 | 1000.2 |
| 20260510101323 | 51 | 360 | 0.0 | 2.0 | 0.00 | 0.00 | 0.00 | 91 | 1000.2 |
| 20260510100333 | 52 | 360 | 1.0 | 2.0 | 0.00 | 0.00 | 0.00 | 91 | 1000.2 |
| 20260510095331 | 52 | 360 | 0.0 | 2.0 | 0.00 | 0.00 | 0.00 | 90 | 1000.2 |
| 20260510094825 | 52 | 360 | 0.0 | 2.0 | 0.00 | 0.00 | 0.00 | 91 | 1000.2 |
| 20260510093840 | 53 | 360 | 1.0 | 2.0 | 0.00 | 0.00 | 0.00 | 89 | 1000.2 |
| 20260510093320 | 53 | 360 | 0.0 | 2.0 | 0.00 | 0.00 | 0.00 | 91 | 1000.2 |
| 20260510092347 | 52 | 360 | 0.0 | 2.0 | 0.00 | 0.00 | 0.00 | 90 | 1000.2 |
| 20260510091841 | 53 | 360 | 0.0 | 2.0 | 0.00 | 0.00 | 0.00 | 90 | 1000.2 |
| 20260510090823 | 53 | 360 | 0.0 | 3.0 | 0.00 | 0.00 | 0.00 | 89 | 1000.2 |
| 20260510085831 | 54 | 360 | 1.0 | 3.0 | 0.00 | 0.00 | 0.00 | 90 | 1000.2 |
| 20260510084823 | 54 | 360 | 2.0 | 4.0 | 0.00 | 0.00 | 0.00 | 90 | 1000.2 |
| 20260510083848 | 54 | 360 | 0.0 | 2.0 | 0.00 | 0.00 | 0.00 | 89 | 1000.2 |
| 20260510082845 | 54 | 360 | 0.0 | 3.0 | 0.00 | 0.00 | 0.00 | 89 | 1000.2 |
| 20260510082337 | 54 | 360 | 0.0 | 2.0 | 0.00 | 0.00 | 0.00 | 89 | 1000.2 |
| 20260510081336 | 53 | 360 | 1.0 | 4.0 | 0.00 | 0.00 | 0.00 | 88 | 1000.2 |
| 20260510080832 | 53 | 360 | 0.0 | 4.0 | 0.00 | 0.00 | 0.00 | 88 | 1000.2 |
| 20260510075835 | 54 | 360 | 0.0 | 3.0 | 0.00 | 0.00 | 0.00 | 89 | 1000.2 |
| 20260510075334 | 54 | 360 | 0.0 | 4.0 | 0.00 | 0.00 | 0.00 | 89 | 1000.2 |
| 20260510074833 | 54 | 360 | 2.0 | 4.0 | 0.00 | 0.00 | 0.00 | 89 | 1000.2 |
| 20260510074318 | 54 | 360 | 1.0 | 3.0 | 0.00 | 0.00 | 0.00 | 90 | 1000.2 |
| 20260510073816 | 54 | 360 | 0.0 | 2.0 | 0.00 | 0.00 | 0.00 | 89 | 1000.2 |
| 20260510072825 | 54 | 360 | 0.0 | 0.0 | 0.00 | 0.00 | 0.00 | 88 | 1000.2 |
| 20260510071833 | 54 | 360 | 0.0 | 3.0 | 0.00 | 0.00 | 0.00 | 87 | 1000.2 |
| 20260510070837 | 54 | 360 | 2.0 | 4.0 | 0.00 | 0.00 | 0.00 | 87 | 1000.2 |
| 20260510070259 | 55 | 360 | 0.0 | 2.0 | 0.00 | 0.00 | 0.00 | 88 | 1000.2 |
| 20260510055342 | 56 | 360 | 0.0 | 2.0 | 0.00 | 0.00 | 0.00 | 86 | 1000.2 |
| 20260510054839 | 56 | 360 | 1.0 | 2.0 | 0.00 | 0.00 | 0.00 | 86 | 1000.2 |
| 20260510053842 | 57 | 360 | 0.0 | 1.0 | 0.00 | 0.00 | 0.00 | 86 | 1000.2 |
| 20260510052849 | 57 | 360 | 0.0 | 2.0 | 0.00 | 0.00 | 0.00 | 85 | 1000.2 |
| 20260510051852 | 57 | 360 | 0.0 | 2.0 | 0.00 | 0.00 | 0.00 | 85 | 1000.2 |
| 20260510050848 | 57 | 360 | 0.0 | 2.0 | 0.00 | 0.00 | 0.00 | 84 | 1000.2 |
| 20260510050345 | 57 | 360 | 0.0 | 1.0 | 0.00 | 0.00 | 0.00 | 84 | 1000.2 |
| 20260510045844 | 58 | 360 | 0.0 | 2.0 | 0.00 | 0.00 | 0.00 | 83 | 1000.2 |
| 20260510044848 | 58 | 360 | 1.0 | 3.0 | 0.00 | 0.00 | 0.00 | 83 | 1000.2 |
| 20260510044338 | 58 | 360 | 1.0 | 3.0 | 0.00 | 0.00 | 0.00 | 82 | 1000.2 |
| 20260510043342 | 58 | 360 | 1.0 | 2.0 | 0.00 | 0.00 | 0.00 | 83 | 1000.2 |
| 20260510042341 | 59 | 360 | 1.0 | 2.0 | 0.00 | 0.00 | 0.00 | 82 | 1000.2 |
| 20260510041338 | 60 | 360 | 0.0 | 2.0 | 0.00 | 0.00 | 0.00 | 82 | 1000.2 |
| 20260510040831 | 60 | 360 | 0.0 | 2.0 | 0.00 | 0.00 | 0.00 | 80 | 1000.2 |
| 20260510040327 | 60 | 360 | 0.0 | 3.0 | 0.00 | 0.00 | 0.00 | 79 | 1000.2 |
| 20260510035334 | 61 | 360 | 1.0 | 2.0 | 0.00 | 0.00 | 0.00 | 79 | 1000.2 |
| 20260510034829 | 61 | 360 | 1.0 | 2.0 | 0.00 | 0.00 | 0.00 | 78 | 1000.2 |
| 20260510033338 | 62 | 360 | 0.0 | 0.0 | 0.00 | 0.00 | 0.00 | 75 | 1000.2 |
| 20260510032345 | 62 | 360 | 0.0 | 2.0 | 0.00 | 0.00 | 0.00 | 74 | 1000.2 |
| 20260510031843 | 62 | 360 | 0.0 | 2.0 | 0.00 | 0.00 | 0.00 | 74 | 1000.2 |
| 20260510031343 | 62 | 360 | 0.0 | 2.0 | 0.00 | 0.00 | 0.00 | 74 | 1000.2 |
| 20260510030340 | 63 | 316 | 1.0 | 3.0 | 0.00 | 0.00 | 0.00 | 72 | 1000.2 |
| 20260510025340 | 63 | 296 | 0.0 | 3.0 | 0.00 | 0.00 | 0.00 | 71 | 1000.2 |
| 20260510024829 | 64 | 301 | 0.0 | 3.0 | 0.00 | 0.00 | 0.00 | 70 | 1000.2 |
| 20260510023832 | 64 | 308 | 0.0 | 4.0 | 0.00 | 0.00 | 0.00 | 69 | 1000.2 |
| 20260510022858 | 64 | 321 | 1.0 | 7.0 | 0.00 | 0.00 | 0.00 | 70 | 1000.2 |
| 20260510021832 | 65 | 309 | 3.0 | 7.0 | 0.00 | 0.00 | 0.00 | 69 | 1000.2 |
| 20260510020829 | 65 | 313 | 2.0 | 8.0 | 0.00 | 0.00 | 0.00 | 68 | 1000.2 |
| 20260510020328 | 65 | 288 | 3.0 | 8.0 | 0.00 | 0.00 | 0.00 | 68 | 1000.2 |
| 20260510015340 | 65 | 319 | 4.0 | 9.0 | 0.00 | 0.00 | 0.00 | 67 | 1000.2 |
| 20260510014842 | 65 | 281 | 2.0 | 9.0 | 0.00 | 0.00 | 0.00 | 67 | 1000.2 |
| 20260510013845 | 66 | 322 | 2.0 | 8.0 | 0.00 | 0.00 | 0.00 | 67 | 1000.2 |
| 20260510013338 | 66 | 296 | 4.0 | 8.0 | 0.00 | 0.00 | 0.00 | 67 | 1000.2 |
| 20260510012835 | 66 | 294 | 4.0 | 10.0 | 0.00 | 0.00 | 0.00 | 66 | 1000.2 |
| 20260510012333 | 66 | 294 | 5.0 | 10.0 | 0.00 | 0.00 | 0.00 | 66 | 1000.2 |
| 20260510011342 | 66 | 259 | 5.0 | 11.0 | 0.00 | 0.00 | 0.00 | 68 | 1000.2 |
| 20260510010341 | 66 | 259 | 4.0 | 10.0 | 0.00 | 0.00 | 0.00 | 68 | 1000.2 |
| 20260510005342 | 66 | 291 | 4.0 | 9.0 | 0.00 | 0.00 | 0.00 | 67 | 1000.2 |
| 20260510004837 | 66 | 262 | 5.0 | 8.0 | 0.00 | 0.00 | 0.00 | 66 | 1000.2 |
| 20260510003841 | 67 | 276 | 4.0 | 7.0 | 0.00 | 0.00 | 0.00 | 64 | 1000.2 |
| 20260510002844 | 67 | 273 | 3.0 | 7.0 | 0.00 | 0.00 | 0.00 | 62 | 1000.2 |
| 20260510002329 | 67 | 286 | 4.0 | 7.0 | 0.00 | 0.00 | 0.00 | 62 | 1000.2 |
| 20260510001336 | 67 | 302 | 3.0 | 6.0 | 0.00 | 0.00 | 0.00 | 62 | 1000.2 |
| 20260510000345 | 67 | 283 | 5.0 | 9.0 | 0.00 | 0.00 | 0.00 | 62 | 1000.2 |
| 20260509235342 | 67 | 259 | 4.0 | 8.0 | 0.00 | 0.00 | 0.00 | 62 | 1000.2 |
| 20260509234340 | 67 | 277 | 4.0 | 7.0 | 0.00 | 0.00 | 0.00 | 61 | 1000.2 |
| 20260509233335 | 67 | 274 | 3.0 | 9.0 | 0.00 | 0.00 | 0.00 | 63 | 1000.2 |
| 20260509232337 | 67 | 251 | 2.0 | 9.0 | 0.00 | 0.00 | 0.00 | 62 | 1000.2 |
| 20260509231832 | 67 | 310 | 4.0 | 10.0 | 0.00 | 0.00 | 0.00 | 61 | 1000.2 |
| 20260509230835 | 67 | 340 | 5.0 | 9.0 | 0.00 | 0.00 | 0.00 | 63 | 1000.2 |
| 20260509225843 | 67 | 275 | 3.0 | 10.0 | 0.00 | 0.00 | 0.00 | 62 | 1000.2 |
| 20260509225340 | 67 | 275 | 2.0 | 10.0 | 0.00 | 0.00 | 0.00 | 64 | 1000.2 |
| 20260509224835 | 67 | 325 | 4.0 | 10.0 | 0.00 | 0.00 | 0.00 | 64 | 1000.2 |
| 20260509223840 | 66 | 309 | 5.0 | 12.0 | 0.00 | 0.00 | 0.00 | 65 | 1000.2 |
| 20260509223333 | 67 | 267 | 8.0 | 13.0 | 0.00 | 0.00 | 0.00 | 62 | 1000.2 |
| 20260509222332 | 67 | 302 | 6.0 | 11.0 | 0.00 | 0.00 | 0.00 | 61 | 1000.2 |
| 20260509221335 | 67 | 309 | 5.0 | 10.0 | 0.00 | 0.00 | 0.00 | 60 | 1000.2 |
| 20260509220347 | 67 | 327 | 8.0 | 13.0 | 0.00 | 0.00 | 0.00 | 59 | 1000.2 |
| 20260509215343 | 67 | 317 | 5.0 | 11.0 | 0.00 | 0.00 | 0.00 | 60 | 1000.2 |
| 20260509214835 | 67 | 279 | 4.0 | 10.0 | 0.00 | 0.00 | 0.00 | 61 | 1000.2 |
| 20260509214324 | 67 | 330 | 7.0 | 10.0 | 0.00 | 0.00 | 0.00 | 60 | 1000.2 |
| 20260509213341 | 68 | 329 | 6.0 | 11.0 | 0.00 | 0.00 | 0.00 | 60 | 1000.2 |
| 20260509212826 | 68 | 281 | 3.0 | 9.0 | 0.00 | 0.00 | 0.00 | 62 | 1000.2 |
| 20260509211839 | 68 | 304 | 3.0 | 10.0 | 0.00 | 0.00 | 0.00 | 62 | 1000.2 |
| 20260509211337 | 67 | 281 | 4.0 | 16.0 | 0.00 | 0.00 | 0.00 | 63 | 1000.2 |
| 20260509210341 | 67 | 258 | 3.0 | 11.0 | 0.00 | 0.00 | 0.00 | 66 | 1000.2 |
| 20260509205837 | 67 | 209 | 5.0 | 11.0 | 0.00 | 0.00 | 0.00 | 66 | 1000.2 |
| 20260509204839 | 66 | 234 | 3.0 | 7.0 | 0.00 | 0.00 | 0.00 | 67 | 1000.2 |
| 20260509204336 | 66 | 323 | 3.0 | 9.0 | 0.00 | 0.00 | 0.00 | 66 | 1000.2 |
| 20260509203344 | 65 | 216 | 4.0 | 6.0 | 0.00 | 0.00 | 0.00 | 71 | 1000.2 |
| 20260509202338 | 65 | 227 | 3.0 | 9.0 | 0.00 | 0.00 | 0.00 | 68 | 1000.2 |
| 20260509201830 | 64 | 163 | 5.0 | 9.0 | 0.00 | 0.00 | 0.00 | 72 | 1000.2 |
| 20260509201327 | 64 | 163 | 4.0 | 7.0 | 0.00 | 0.00 | 0.00 | 73 | 1000.2 |
| 20260509200333 | 64 | 202 | 1.0 | 7.0 | 0.00 | 0.00 | 0.00 | 72 | 1000.2 |
| 20260509194850 | 64 | 285 | 4.0 | 7.0 | 0.00 | 0.00 | 0.00 | 73 | 1000.2 |
| 20260509194345 | 64 | 172 | 4.0 | 6.0 | 0.00 | 0.00 | 0.00 | 75 | 1000.2 |
| 20260509193843 | 64 | 169 | 2.0 | 7.0 | 0.00 | 0.00 | 0.00 | 71 | 1000.2 |
| 20260509192843 | 64 | 270 | 3.0 | 8.0 | 0.00 | 0.00 | 0.00 | 70 | 1000.2 |
| 20260509192342 | 63 | 222 | 5.0 | 9.0 | 0.00 | 0.00 | 0.00 | 77 | 1000.2 |